Back to catalog

COSMOS 1435

AliveMilitaryLEO
NORAD 13767·PAYLOAD·🇷🇺 Russia

Launched Jan 19, 1983 from Plesetsk Cosmodrome

Loading…

Next Passes (next 24 hours)

TLE

FreshSource: Space-Track

Epoch: Sep 14, 2026, 14:52 UTC

1 13767U 83002G   26257.61986437  .00000003  00000-0  11874-3 0  9990
2 13767  74.0280 344.6409 0034091  16.3637  50.7935 12.55714602   967

Track COSMOS 1435 in real time with AllMySat

Download on the App Store